This is the latest recevied weather packets stored in our database for station/object W0WC. If no packets are shown the sender has not sent any weather packets the latest 10 day(s).
| Time | Temp. | Humidity | Pressure | Rain* | Wind** | Luminosity | Snow |
|---|---|---|---|---|---|---|---|
| 1777965512 | 16.67° C | 95% | 1006.3 hPa | 1.78 mm | - | 0 W/m² | - |
| 1777965209 | 16.67° C | 94% | 1006.8 hPa | 3.05 mm | - | 0 W/m² | - |
| 1777964907 | 16.67° C | 94% | 1006.6 hPa | 4.32 mm | - | 0 W/m² | - |
| 1777964603 | 16.67° C | 94% | 1007.3 hPa | 9.65 mm | - | 0 W/m² | - |
| 1777964298 | 16.67° C | 93% | 1007.1 hPa | 9.65 mm | - | 0 W/m² | - |
| 1777963996 | 16.67° C | 93% | 1008 hPa | 7.87 mm | - | 0 W/m² | - |
| 1777963693 | 16.67° C | 93% | 1007.9 hPa | 7.11 mm | - | 0 W/m² | - |
| 1777963390 | 16.67° C | 92% | 1007.8 hPa | 7.11 mm | - | 0 W/m² | - |
| 1777963088 | 16.67° C | 91% | 1007.9 hPa | 8.89 mm | - | 0 W/m² | - |
| 1777962784 | 16.67° C | 91% | 1007.9 hPa | 9.65 mm | - | 0 W/m² | - |
| 1777962480 | 17.22° C | 90% | 1008 hPa | 8.89 mm | - | 0 W/m² | - |
| 1777962178 | 17.22° C | 88% | 1008.3 hPa | 6.1 mm | - | 0 W/m² | - |
| 1777961875 | 17.22° C | 87% | 1007.7 hPa | 4.83 mm | - | 0 W/m² | - |
| 1777961572 | 17.78° C | 85% | 1007 hPa | 7.87 mm | - | 0 W/m² | - |
| 1777961270 | 17.78° C | 82% | 1006.8 hPa | 7.87 mm | - | 0 W/m² | - |
| 1777960967 | 18.89° C | 79% | 1006.6 hPa | 4.32 mm | - | 0 W/m² | - |
| 1777960662 | 19.44° C | 76% | 1006.2 hPa | 1.27 mm | - | 0 W/m² | - |
| 1777960358 | 19.44° C | 72% | 1006 hPa | 1.27 mm | - | 0 W/m² | - |
| 1777960056 | 20° C | 69% | 1005.4 hPa | 0 mm | - | 0 W/m² | - |
| 1777959754 | 20.56° C | 68% | 1005.4 hPa | 0 mm | - | 0 W/m² | - |
| 1777959452 | 20.56° C | 66% | 1005.5 hPa | 0 mm | - | 0 W/m² | - |
| 1777959148 | 20.56° C | 65% | 1005.5 hPa | 0 mm | - | 0 W/m² | - |
| 1777958845 | 20.56° C | 64% | 1005.2 hPa | 0 mm | - | 0 W/m² | - |
| 1777958542 | 20.56° C | 64% | 1005.2 hPa | 0 mm | - | 0 W/m² | - |
| 1777958239 | 20.56° C | 64% | 1005.4 hPa | 0 mm | - | 0 W/m² | - |
* Rain latest hour (hover to see other rain measurements)
** Current wind speed in m/s (hover to see current wind gust speed)